Location: Allens Landing
(37.8284°N, 89.7284°W)
Time: 12:05:38
(UTC+00:00)

Vanguard 2 - Pass Details

Date: 16 December 2025
Orbit: 552 x 2898 km, 32.9° (Epoch: 13 January)

Event Time Altitude Azimuth Distance (km) Brightness Sun altitude
Exits shadow 10:13:09 17° 116° (ESE) 1,423 9.5 -33.6°
Drops below altitude 10° 10:14:14 10° 109° (ESE) 1,843 10.3 -33.4°
Sets 10:16:37 0° 103° (ESE) 2,828 11.5 -32.9°
